Regional Weather Roundup
Issued by NWS Charleston, SC

Current Version | Previous Version | Text Only | Print | Product List | Glossary On
Versions: 1 2 3 4 5 6 7 8 9 10 11 12 13 14 15 16 17 18 19 20 21 22 23 24 25 26 27 28 29 30 31 32 33 34 35 36 37 38 39 40 41 42 43 44 45 46 47 48 49 50
000
ASUS42 KCHS 240527
RWRCHS

REGIONAL WEATHER ROUNDUP
NATIONAL WEATHER SERVICE CHARLESTON SC
100 AM EDT WED MAY 24 2017

NOTE: "FAIR" INDICATES FEW OR NO CLOUDS BELOW 12,000 FEET WITH NO
SIGNIFICANT WEATHER AND/OR OBSTRUCTIONS TO VISIBILITY.

NOT ALL STATIONS ARE QUALITY CONTROLLED. USE DATA WITH CAUTION...
ESPECIALLY DEWPOINT OBSERVATIONS.

SCZ027-030-031-034>040-042>050-240600-
...SOUTHEAST SOUTH CAROLINA...

CITY           SKY/WX    TMP DP  RH WIND       PRES   REMARKS
N CHARLESTON   MOCLDY    70  69  97 SW8       29.70S
WATERFRONT PRK   N/A     73  71  93 SW7G15    29.70F
JOHNS ISLAND   FAIR      72  70  94 SW7       29.71F
PINOPOLIS        N/A     72  70  94 SW7       29.61F
MONCKS CORNER  FAIR      68  66  94 SW6       29.69F
SUMMERVILLE    FAIR      68  68 100 CALM      29.71S
BEAUFORT MCAS  MOCLDY    71  71 100 S3        29.71F
BEAUFORT ARPT  MOCLDY    72  70  94 S6        29.71F
HILTON HEAD IS CLOUDY    73  72  94 S12G20    29.73S
WALTERBORO     MOCLDY    68  68 100 S6        29.71S
ALLENDALE      CLOUDY    70  70 100 CALM      29.68F

...SOUTHERN MIDLANDS AND PEE DEE...

CITY           SKY/WX    TMP DP  RH WIND       PRES   REMARKS
GEORGETOWN     FAIR      68  68 100 SW5       29.70S
KINGSTREE      CLOUDY   N/A N/A N/A CALM      29.69S
ORANGEBURG     CLOUDY    69  68  96 SW6       29.69F
BARNWELL       CLOUDY    70  70 100 SW5       29.70S
AIKEN          CLOUDY    66  64  94 S6        29.73R FOG
MANNING        CLOUDY    68  68 100 W14       29.69S
COLUMBIA       CLOUDY    68  66  93 CALM      29.68F
SUMTER         CLOUDY    68  68 100 SW7       29.67F
FLORENCE       CLOUDY    68  68 100 SW8       29.69F
MYRTLE BEACH   MOCLDY    70  68  93 W6        29.70F
N MYRTLE BEACH CLOUDY    70  69  97 W8        29.68F

$$

GAZ063-065-086>088-099>101-113>116-118-119-134>141-150-240600-
...SOUTHEAST GEORGIA...

CITY           SKY/WX    TMP DP  RH WIND       PRES   REMARKS
SAVANNAH ARPT  CLOUDY    73  69  87 S9        29.72F
HUNTER AAF     CLOUDY    72  72 100 S13G18    29.71S
FORT STEWART   PTCLDY    72  69  89 S7        29.71S
STATESBORO     CLOUDY    72  72 100 S5        29.71S
SYLVANIA       RAIN      70  70 100 CALM      29.71F
CLAXTON        MOCLDY   N/A N/A N/A S3        29.72R

...CSRA...CENTRAL AND FAR SOUTHEAST GEORGIA...

CITY           SKY/WX    TMP DP  RH WIND       PRES   REMARKS
THOMSON        CLOUDY    67  66  97 NW3       29.75F
AUGUSTA-BUSH   CLOUDY    70  68  93 CALM      29.69S
AUGUSTA-DANIEL CLOUDY    69  65  86 SW3       29.72R
SWAINSBORO     TSTM      70  70 100 S8        29.71F
VIDALIA        MOCLDY    72  72 100 SW7       29.71S
EASTMAN        CLOUDY    72  72 100 S5        29.73S
HAZLEHURST     FAIR      73  73 100 SW8       29.71S
ALMA           MOCLDY    72  69  90 S8        29.73F
WAYCROSS       CLOUDY    74  74 100 SW7       29.74S
JESUP          FAIR      72  68  88 CALM      29.74F
BAXLEY         FAIR      72  72 100 S7        29.72F
BRUNSWICK      CLOUDY    73  72  94 SW5       29.75F
SAINT SIMONS   CLOUDY    74  69  85 SW13      29.75F

$$

SCZ027-028-034-036>038-045-046-048>050-GAZ119-141-240600-
...LAKE AND SUPPLEMENTAL COASTAL OBSERVATIONS...

STATION/POSITION TIME  TEMP    WIND        PRES    WAVE   SWELL
                       AIR SEA DIR/SP/G            HT/PER HT/PER/DIR
                 (UTC) (F)     (DEG/KT/KT) (MB)    (FT/S) (FT/S/D)
WINYAH BAY       0445   71     250/  6     1005.0F
LAKE MURRAY      0520   68     250/  6/  7 1005.1
ACE BASIN NERRS  0445   71        CALM     1007.0S
FORT PULASKI     0500   74     240/  8/ 14 1006.9
SAPELO ISLAND    0500   74     210/ 13     1007.0

$$

ANZ835-935-AMZ111-154-330-350-352-354-370-450-454-472-240600-
...C-MAN AND BUOY OBSERVATIONS...

STATION/POSITION TIME  TEMP    WIND        PRES    WAVE   SWELL
                       AIR SEA DIR/SP/G            HT/PER HT/PER/DIR
                 (UTC) (F)     (DEG/KT/KT) (MB)    (FT/S) (FT/S/D)
BUOY 41004       0510   78 77  230/ 19/ 23 1005.9
BUOY 41008       0450   76 78  190/ 27/ 33 1006.9F   5/ 5
FOLLY BEACH CMAN 0500   74     230/ 10/ 13 1006.7S
CAPERS NEARSHORE 0508   79 76  240/ 19/ 25 1005.5R
FRIPP NEARSHORE  0508   78 78  230/ 19/ 27 1006.0F


STATION/POSITION TIME  TEMP    WIND        PRES    WAVE   SWELL
                       AIR SEA DIR/SP/G            HT/PER HT/PER/DIR
                 (UTC) (F)     (DEG/KT/KT) (MB)    (FT/S) (FT/S/D)
5E ST. MARYS GA  0500      79                N/A     3/ 6
FRYING PAN BUOY  0510   77 77  220/ 16/ 21 1005.3
BUOY 41025       0450   74 75  210/ 19/ 23 1005.6R   6/ 8   2/130/11
CAPE LOOKOUT NC  0500   71     200/ 12/ 15 1005.2F
BUOY 41002       0450   77 76  190/ 21/ 25 1010.7F   7/ 6   2/ 50/13
BUOY 41010       0510   80 79  190/ 16/ 21 1011.3
ST AUGUSTINE FL  0500   79 78  210/ 11/ 15 1009.7F


$$




USA.gov is the U.S. government's official web portal to all federal, state and local government web resources and services.